Showing default

MAGION 2, 20281

Orbit data source: Space-Track

MAGION 2, 20281 is a payload satellite owned by Ceskoslovensko (CZ) in LEO that was launched on Thu, 28 Sep 1989 UTC via a TSIKLON-3 launch vehicle from the Plesetsk Missile And Space Complex (PKMTR). Payload-class satellites include a variety of spacecraft equipped with specific instruments for various scientific and technological missions. These include communications satellites like Starlink; space stations such as the ISS; scientific satellites like the Hubble; Earth observation satellites from companies like Planet Labs, Umbra, and HawkEye 360; GPS; miniature CubeSats for education and research; and military/defense satellites.

Loading next visibility...
Identifier
20281, 1989-080B
Orbit
LEO
Country
Flag of CZCZ / CZCH
Related business
Manufacturer
GI Czech
Mission
Civil Science
Bus & Motor
MAGION, Unknown motor
Mass
65 kg wet, 65 kg dry
Launch date (UTC)
1989-09-28 (37 years ago)
Launch vehicle
TSIKLON-3
Launch site
Plesetsk Missile And Space Complex (PKMTR)
Object type
Payload
Rocket body
Debris
Shape & HBR
Oct Cyl + 4 Pan + 2 Ant, 1.0 m
Radar Cross Section
1.083 m², Medium (>0.1 m² and < 1m²)

Expand to show TLE details & history
Last TLE update: 8 hours ago

TLE from 8 hours ago
0 MAGION 2
1 20281U 89080B   26095.28933389  .00000814  00000-0  22871-3 0  9991
2 20281  82.6013  60.1077 1173057 126.1126 245.4422 12.62900943672878
Epoch: 2026-04-05T06:56Z
TLE epoch observation values (Epoch: 2026-04-05T06:56:38.448Z)
Latitude
-0.00002°
Longitude
122.3506°
Altitude
1,875.693 km
Speed
6.741 km/s
True Right ascension
04h 00m 25s
True Declination
0° 00' 00"
Sunlit
Object was in daylight at epoch
Visualization orbit readout
Latitude
Unknown
Longitude
Unknown
Altitude
Unknown
Speed
Unknown
Apparent Right ascension
Unknown
Apparent Declination
Unknown
Sunlit
N/A
Visualization observer readout
Local Sidereal Time
21:08:15
Azimuth
Unknown
Elevation
Unknown
Doppler factor
Unknown
Orbital elements
Apogee altitude
2,321.644 km
Perigee altitude
494.868 km
Semi-major axis
7,786.393 km
Eccentricity
0.11731
Inclination
82.6013°
RAAN
60.1077°
Arg. of periapsis
126.1126°
True anomaly
233.99562°
Mean anomaly
245.4422°
Eccentric anomaly
239.64261°
Mean motion
3.15892 °/min
Orbital period
113.96 mins
BSTAR
0.00022871
Loading maneuver chart data...
Computing Atmospheric mass density...
Loading historical data...
Loading historical data...
Loading historical data...
Loading historical data...
Loading historical data...
Loading historical data...
Loading historical data...

Documentation

Showing up to 5 results
|